Погода в Синельниково

Украина / Днепропетровская область     48°19′02″N   35°30′56″E
темп.,
°C
ветер,
м/с
пор.,
м/с
влажн.,
%
обл.,
%
осадки,
мм/ч
давл.,
гПа
погр.,
м
14 июня, пн
пн1400:00+17ююв488733 0.3 1009147
03:00+15ююв35915 0.7 101070
06:00+16вюв378923 0.0 1010170
09:00+21юв56715 0.0 1011681
12:00+25юв565628 0.3 10121702
15:00+26юв344796 0.4 10122346
18:00+22в336960 0.0 101253
21:00+20в33711 0.0 101227
15 июня, вт
вт1500:00+18всв227486 0.0 101220
03:00+17св468113 0.0 101172
06:00+18ссв478067 0.4 1011144
09:00+21св477742 0.5 1011364
12:00+26всв555215 0.1 10111476
15:00+26всв345391 0.1 1009967
18:00+23ююв1269100 0.0 100983
21:00+20юв3379100 0.3 100932
16 июня, ср
ср1600:00+19юв358481 0.0 100991
03:00+16ююв22930 0.0 100928
06:00+17юв1189100 0.0 100946
09:00+21ююв2372100 0.0 1010534
12:00+25ююв225258 0.0 10111279
15:00+26в234818 0.0 10101865
18:00+24ссз446491 0.1 1009107
21:00+17ссв7138942 20.6 1012348
17 июня, чт
чт1700:00+19всв5119384 1.1 1012219
03:00+18всв61390100 1.3 1012385
06:00+18всв51394100 0.4 1012377
09:00+22всв71382100 2.9 1014680
12:00+21всв6108778 5.5 1015369
15:00+24в7107194 9.6 10161143
18:00+20вюв4693100 2.8 1017235
21:00+19св3394100 5.1 101976
18 июня, пт
пт1800:00+18всв49963 0.3 1019219
03:00+18всв7159316 0.4 1020487
06:00+16всв61288100 0.0 1021348
09:00+17всв7138459 0.0 1022494
12:00+23в796460 0.0 10221030
15:00+24в795884 0.0 10221470
18:00+23всв6964100 0.0 10231029
21:00+18всв4118176 0.0 1024229